GEFSSE_con_probscp_312.txt.gz
Probability
7 11 14 10 6 5 6 5 4 3 3 3 3 1 1 1 0 0 0 0 0 0 0 0 0 0 0 0 0 0 0 0 0 1 1 1 1 1 0 0 0 0 0
8 12 15 13 8 7 7 6 5 4 3 3 3 2 2 2 1 1 0 0 0 0 0 0 0 0 0 0 0 0 0 0 0 0 0 1 2 2 1 0 0 0 0
9 12 16 14 10 7 8 7 5 5 4 3 3 4 4 4 3 2 1 1 1 0 0 0 0 0 0 0 0 0 0 0 0 0 0 1 2 2 1 0 0 0 0
10 12 15 15 11 8 7 6 5 4 4 4 4 4 5 6 5 4 3 2 2 1 1 0 0 0 0 0 0 0 0 0 0 0 0 0 1 1 1 0 0 0 0
10 12 15 17 15 11 8 6 3 2 2 3 4 4 4 5 6 5 4 4 4 3 3 2 1 1 1 1 0 0 0 0 0 0 0 0 0 0 0 0 1 1 0
9 11 16 20 19 15 11 7 3 1 1 2 4 4 3 3 4 5 5 5 5 5 4 3 2 3 3 2 1 0 0 0 0 0 0 0 0 0 0 0 1 1 1
9 12 17 22 22 19 15 9 4 2 3 4 4 3 2 2 3 4 4 4 5 6 6 5 5 5 5 4 2 1 0 0 0 0 0 0 0 0 0 1 1 1 1
12 13 16 20 22 21 17 12 6 4 5 6 5 3 2 2 3 3 4 4 4 5 6 7 8 8 7 5 4 2 1 0 0 0 0 0 0 0 0 1 0 0 1
15 16 16 17 18 18 16 13 8 5 5 5 5 3 1 1 2 3 4 5 4 4 5 7 9 9 8 6 4 2 1 0 0 0 0 0 0 0 0 0 0 0 0
18 18 17 16 15 16 14 12 9 6 4 3 3 2 1 0 1 2 3 4 5 5 5 6 7 8 8 6 3 1 0 0 0 0 0 0 0 0 0 0 0 0 0
19 19 18 17 16 17 15 11 8 6 4 3 1 1 0 0 0 1 1 3 5 5 5 5 6 7 6 5 2 1 0 0 0 0 0 0 0 0 0 0 0 0 0
17 18 19 18 19 21 21 16 11 9 7 4 2 1 1 1 1 0 0 2 3 5 5 5 5 5 5 4 2 1 0 0 0 0 0 0 0 0 0 0 0 0 0
17 20 21 21 23 26 27 23 17 14 11 8 5 4 4 4 2 1 1 2 3 4 5 6 6 6 5 5 3 2 1 0 0 0 0 0 0 0 0 0 0 0 0
18 21 22 23 26 28 30 28 21 16 15 12 9 7 6 6 4 2 1 3 4 4 5 6 6 6 6 5 3 2 1 0 0 0 0 0 0 0 0 0 0 0 0
18 19 21 23 25 28 30 27 21 16 14 14 12 8 6 6 4 3 3 3 4 4 4 5 6 6 6 5 3 1 0 0 0 0 0 0 0 0 1 1 1 1 0
15 15 18 21 24 27 28 25 20 16 14 13 13 10 7 6 4 3 3 3 3 3 3 4 5 6 6 5 3 1 1 1 1 0 0 0 0 0 0 1 2 2 1
13 13 14 18 22 23 23 22 18 16 14 14 13 11 8 7 5 4 4 3 3 3 3 4 5 5 5 4 3 3 2 2 1 0 0 0 0 0 0 0 1 2 2
12 12 13 16 20 20 20 19 17 15 15 16 15 10 7 6 6 5 5 4 3 4 5 5 5 4 4 3 3 3 3 2 1 0 0 1 1 1 0 0 0 1 2
10 10 12 15 18 19 19 17 16 15 16 16 14 9 6 5 5 5 6 5 5 6 7 6 4 3 3 2 2 3 3 3 1 0 0 1 1 1 0 0 0 0 1
7 8 10 13 17 19 19 18 16 14 15 15 12 8 5 4 4 4 5 5 5 6 7 5 4 3 2 1 1 2 3 3 2 0 0 0 1 2 1 0 1 1 0
6 6 6 9 14 18 19 19 17 14 13 13 9 6 4 4 4 4 4 4 4 5 5 4 3 3 2 1 0 1 3 3 2 0 0 0 1 2 2 1 2 2 1
4 3 3 5 9 14 16 17 16 14 12 11 9 6 4 4 5 4 3 3 3 3 3 3 3 3 1 0 0 1 2 3 2 0 0 0 1 2 2 1 2 3 3
2 2 2 2 4 8 12 13 12 10 10 10 10 7 5 4 5 4 3 3 3 3 3 2 3 2 1 0 0 0 1 2 1 0 0 0 0 1 1 0 1 2 2
1 2 3 2 2 5 9 10 8 7 7 8 9 8 4 2 3 3 3 2 2 2 1 1 1 1 1 0 0 0 0 0 0 0 0 0 0 0 0 0 0 1 1
1 3 4 3 1 2 5 8 8 6 5 6 7 6 4 2 2 2 1 1 1 1 0 0 0 0 0 0 0 0 0 0 0 0 0 0 0 0 0 0 0 0 0
2 4 6 4 1 1 4 7 8 6 4 4 5 5 4 3 2 2 1 0 0 0 0 0 0 0 0 0 0 0 0 0 0 0 0 0 0 1 1 1 0 0 0

GEFSSE_con_probscp_318.txt.gz
Probability
12 10 9 9 9 8 6 5 5 6 7 6 3 2 1 1 0 0 1 2 3 2 1 0 0 0 0 0 0 0 0 0 0 0 0 0 0 0 0 0 0 0 0
13 13 11 10 9 9 7 6 5 5 6 6 5 4 3 2 0 0 0 1 2 1 0 0 0 0 0 0 0 0 0 0 0 0 0 0 0 0 0 0 0 0 0
16 15 13 11 10 10 9 9 7 5 5 5 5 6 4 2 0 0 0 0 0 0 0 0 0 0 0 0 0 0 0 0 0 0 0 0 0 0 0 1 0 0 0
17 15 13 13 13 11 11 10 8 5 4 3 4 5 4 3 1 0 0 0 0 1 1 0 0 0 0 0 0 0 0 0 0 0 0 0 0 0 0 0 0 0 0
17 15 16 18 18 15 12 11 8 6 4 3 3 4 4 4 3 1 0 0 0 1 1 1 1 1 0 0 0 0 0 0 0 0 0 0 0 0 0 0 1 1 1
15 15 19 23 23 19 16 14 11 7 5 4 3 4 5 4 3 2 1 1 1 1 1 2 2 2 1 1 0 0 0 0 0 0 0 0 0 0 0 0 1 2 3
14 16 20 24 25 23 20 17 14 10 6 4 3 4 4 4 3 3 3 2 2 1 1 3 3 3 3 2 1 0 0 0 0 0 0 0 0 0 0 0 1 2 3
16 17 19 22 23 22 21 20 17 12 8 6 4 4 3 3 2 2 2 2 2 2 2 3 3 3 3 3 2 2 1 1 0 0 0 0 1 1 1 0 1 2 3
19 20 19 18 18 18 20 20 19 14 9 7 5 3 2 1 1 1 1 1 1 1 2 3 3 3 3 3 3 2 2 1 0 0 0 1 2 2 1 0 1 3 3
22 22 20 16 14 14 16 17 17 13 8 6 4 2 1 0 0 0 0 0 0 1 1 1 2 2 3 3 3 1 1 0 0 0 0 1 2 2 2 1 2 3 3
21 22 21 18 15 13 12 12 12 11 7 5 3 1 0 0 0 0 0 0 0 1 1 1 2 3 3 3 2 1 0 0 0 0 0 1 2 3 2 1 2 3 3
17 19 23 23 21 17 13 11 10 9 7 6 4 2 1 0 0 0 0 0 0 0 1 1 2 3 3 2 1 0 0 0 0 0 0 1 3 3 1 1 1 1 2
14 17 24 28 26 23 20 16 13 10 8 8 6 4 2 2 1 0 0 0 0 0 0 0 1 1 1 1 2 1 1 0 0 0 0 1 3 3 2 1 0 0 1
13 17 23 28 29 28 27 24 17 12 9 8 6 5 4 4 3 1 0 0 0 0 0 0 0 0 0 1 1 2 2 1 0 0 0 1 2 3 2 1 0 0 0
12 15 20 25 29 31 31 28 22 16 11 7 6 6 6 6 4 2 0 0 0 0 0 0 0 0 0 0 0 1 2 1 0 0 0 0 1 2 1 0 0 0 0
10 12 15 21 27 30 31 29 25 21 15 10 8 9 8 7 6 3 1 0 0 1 1 0 0 0 0 0 0 1 1 0 0 0 0 0 0 1 1 1 1 0 0
10 10 12 16 22 26 28 28 27 25 20 15 13 12 10 8 6 5 3 2 1 2 1 1 1 1 0 0 1 1 1 0 0 0 0 0 0 0 1 2 2 1 0
9 9 10 13 17 22 25 27 27 26 22 18 15 13 12 9 6 5 5 4 3 3 2 2 2 2 1 0 1 2 2 1 0 0 0 0 0 0 0 1 2 1 1
8 9 10 11 14 18 23 26 28 27 23 17 13 13 13 11 8 6 5 4 3 4 4 4 3 2 1 0 0 1 2 2 1 0 0 0 0 0 0 0 1 1 0
7 8 9 11 12 15 19 24 26 25 23 17 11 11 14 14 10 7 6 5 4 4 5 5 4 2 1 0 0 0 1 1 1 0 0 0 0 0 0 0 0 0 0
8 8 9 10 11 12 14 19 23 23 21 17 10 9 13 14 10 7 6 6 5 5 6 6 4 2 1 0 0 0 0 0 0 0 0 0 0 0 0 0 0 0 0
8 8 7 7 9 10 10 14 19 21 19 15 10 7 9 9 8 7 6 6 5 4 5 6 4 2 1 0 0 0 0 0 0 0 0 0 0 0 0 0 0 0 0
7 6 5 5 7 8 9 11 14 17 17 14 9 4 3 3 4 4 4 4 4 4 4 5 4 3 2 1 0 0 0 0 0 0 0 0 0 0 0 0 0 0 0
6 6 5 5 7 9 9 10 11 13 14 13 8 4 1 0 1 2 3 3 3 3 3 4 3 3 3 1 0 0 0 0 0 0 0 0 0 0 0 0 0 1 1
6 6 6 6 7 8 9 10 10 10 11 10 8 4 1 0 0 1 2 3 3 3 3 3 3 3 3 2 1 0 0 0 0 0 0 0 0 0 0 0 0 1 2
6 6 6 5 6 7 8 9 9 8 8 8 7 5 2 1 0 0 1 3 3 3 3 3 3 3 3 3 2 1 0 0 0 0 0 0 0 0 0 0 0 1 1

GEFSSE_con_probscp_324.txt.gz
Probability
4 5 7 8 10 13 16 15 13 13 13 11 10 9 6 4 3 3 3 3 3 3 2 1 0 0 0 0 0 0 0 0 0 0 0 0 0 0 0 0 0 0 0
5 6 9 10 12 14 16 15 14 14 13 12 10 9 7 5 4 3 3 3 3 3 3 1 1 1 1 1 0 0 0 0 0 0 0 0 0 0 0 0 0 0 0
6 7 11 13 14 15 16 16 16 16 14 12 11 10 9 8 6 4 4 4 3 3 3 3 2 2 2 2 1 0 0 0 0 0 0 0 0 0 0 0 0 0 0
8 9 11 13 15 16 16 17 18 18 15 12 11 10 10 9 7 6 6 5 4 4 3 3 3 3 3 2 1 0 0 0 0 0 0 0 0 0 0 0 0 0 0
11 11 12 14 16 17 16 17 18 18 16 13 12 11 10 9 8 7 6 6 5 4 4 3 3 3 2 1 0 0 0 0 0 0 0 0 0 0 0 0 0 0 0
13 13 14 17 19 19 19 18 19 18 16 14 13 11 9 9 8 7 6 5 4 4 3 3 3 3 2 0 0 0 0 0 0 0 0 0 0 0 0 0 0 0 0
17 15 16 19 23 24 24 22 20 18 16 14 13 11 9 7 7 7 6 4 3 3 3 3 3 2 1 0 0 0 0 0 0 0 0 0 0 0 0 0 0 0 0
20 19 18 21 24 27 26 24 21 19 17 14 13 12 9 7 7 6 6 5 4 3 3 3 1 1 1 0 0 0 0 0 0 0 0 0 0 0 0 0 0 0 0
22 22 22 22 23 24 24 23 21 20 17 14 14 13 11 8 7 6 6 6 4 3 3 3 1 0 0 0 0 0 0 0 0 0 0 0 0 0 0 0 0 1 1
20 22 23 22 20 19 20 20 20 19 17 15 14 12 10 8 7 7 7 6 5 4 3 3 2 1 1 0 0 0 0 0 0 0 0 0 0 0 0 1 2 3 4
18 19 19 19 18 17 17 18 18 16 15 14 11 10 8 7 6 5 6 6 6 5 4 3 3 1 1 0 0 0 0 0 0 0 0 0 0 0 0 1 3 4 5
16 16 16 16 17 16 15 16 15 13 11 10 8 7 6 4 3 2 3 5 5 5 4 3 3 2 1 0 0 0 0 0 0 0 0 0 0 0 0 1 3 4 4
13 14 14 14 16 16 15 15 14 11 8 7 6 4 4 3 1 0 1 2 3 3 3 3 3 2 1 0 0 0 0 0 0 0 0 0 0 0 0 1 2 3 3
10 11 12 12 14 15 14 15 14 10 6 5 4 4 3 3 1 0 0 0 1 1 1 2 3 2 1 0 0 0 0 0 0 0 0 0 0 0 0 1 2 3 3
7 8 9 10 11 12 13 14 13 9 5 4 4 4 4 4 3 1 0 0 0 0 1 1 2 2 1 0 0 0 0 0 0 0 0 0 0 0 0 1 2 3 3
4 5 7 9 10 9 9 11 11 9 6 4 4 3 4 4 3 1 0 0 0 0 1 2 2 2 1 0 0 0 0 0 0 0 0 0 0 1 1 2 3 3 3
2 4 6 8 9 8 7 9 10 10 7 4 2 3 3 4 3 2 1 1 1 1 1 1 1 1 0 0 0 0 0 0 0 0 0 0 0 1 2 3 3 3 3
3 4 6 7 7 8 7 9 10 11 8 4 1 1 2 3 3 3 3 2 2 2 1 0 0 0 0 0 0 0 0 0 0 0 0 0 0 0 1 3 3 3 3
3 4 6 6 6 6 8 8 9 9 8 4 1 1 1 1 2 3 3 3 3 3 1 0 0 0 0 0 0 0 0 0 0 0 0 0 0 0 1 2 3 3 3
3 4 5 6 6 6 7 8 7 7 6 4 2 1 0 0 1 2 3 3 3 3 2 1 0 0 0 0 0 0 0 0 0 0 0 0 0 0 0 1 1 2 2
1 2 4 5 6 6 6 7 6 5 5 4 2 0 0 0 0 1 2 3 3 3 3 2 1 1 0 0 0 0 0 0 0 0 0 0 0 0 0 0 0 1 1
1 2 4 5 6 6 6 5 5 4 4 3 2 1 1 1 0 0 1 1 2 3 3 3 3 1 0 0 0 0 0 0 0 0 0 0 0 0 0 0 0 0 0
1 3 5 6 6 6 6 5 4 4 3 3 3 2 2 2 1 0 0 0 1 2 3 4 4 1 0 0 0 0 0 0 0 0 0 0 0 0 0 0 0 0 0
2 4 6 6 6 6 6 6 5 4 4 4 3 3 3 3 2 0 0 0 0 1 2 4 4 1 0 0 0 0 0 0 0 0 0 0 0 0 0 0 0 0 0
2 5 6 6 6 6 6 6 6 5 4 5 4 3 3 2 1 0 0 0 0 0 1 2 2 1 0 0 0 0 0 0 0 0 0 0 0 0 0 0 0 0 0
2 5 6 6 6 6 6 6 5 4 4 5 5 3 2 1 0 0 0 0 0 0 0 1 1 0 0 0 0 0 0 0 0 0 0 0 0 0 0 0 0 0 0

GEFSSE_con_probscp_330.txt.gz
Probability
4 6 11 13 13 12 12 12 13 14 13 12 11 11 9 7 5 3 1 1 2 2 2 2 2 1 0 0 0 0 0 0 0 0 0 0 0 0 0 0 0 0 0
5 7 11 15 15 14 12 12 13 14 14 13 13 12 10 7 5 4 2 1 1 2 3 3 2 1 0 0 0 0 0 0 0 0 0 0 0 0 0 0 0 0 0
5 8 13 17 18 16 14 13 13 14 14 15 15 14 11 8 6 6 4 3 2 3 3 3 2 1 0 0 0 0 0 0 0 0 0 0 0 0 0 0 0 0 0
6 8 13 17 19 18 16 15 15 15 15 16 16 15 13 9 7 6 6 4 3 3 3 2 1 0 0 0 0 0 0 0 0 0 0 0 0 0 0 0 0 0 0
7 8 12 16 18 19 17 16 16 17 17 17 16 15 13 11 8 7 7 6 5 4 3 2 1 1 1 1 1 1 0 0 0 0 0 0 0 0 0 0 0 0 0
9 8 12 17 19 18 18 17 17 18 19 18 17 16 14 11 9 9 9 9 8 6 4 3 2 2 2 3 2 1 0 0 0 0 0 0 0 0 0 0 0 0 0
8 8 11 18 22 20 19 20 19 18 19 19 18 17 14 12 10 10 10 10 9 6 4 3 3 3 3 3 2 1 0 0 0 0 0 0 0 0 0 0 0 0 0
7 7 10 16 22 23 23 22 21 20 19 19 19 17 16 13 11 10 9 9 8 5 3 3 3 3 3 2 1 1 0 0 0 0 0 0 0 0 0 0 0 0 0
7 7 9 12 17 23 25 23 22 21 20 19 19 19 18 15 11 9 8 8 6 5 3 3 3 3 3 2 2 1 0 0 0 0 0 0 0 0 0 0 0 0 0
5 6 7 9 12 18 22 21 20 20 20 18 18 19 18 15 11 9 7 7 6 5 4 4 3 3 3 2 1 1 0 0 0 0 0 0 0 0 0 0 0 0 0
4 4 5 7 10 14 17 16 16 17 17 16 16 16 15 12 10 9 7 6 6 6 6 5 4 4 3 2 0 0 0 0 0 0 0 0 0 0 0 0 0 0 0
4 5 5 6 9 12 13 13 14 16 15 14 14 14 12 10 9 8 7 6 6 6 6 6 6 5 4 2 1 0 0 0 0 0 0 0 0 0 0 0 0 0 0
6 7 6 7 9 12 12 12 13 15 14 12 12 13 11 9 8 7 7 6 6 6 6 6 6 6 5 3 1 0 0 0 0 0 0 0 0 0 0 1 1 1 0
7 6 6 6 8 11 12 12 13 14 14 12 12 11 10 8 7 7 6 6 6 6 6 6 6 5 4 3 1 0 0 0 0 0 0 0 0 0 0 1 2 2 1
6 5 4 5 7 9 10 11 12 13 13 12 11 9 8 7 6 6 6 5 5 4 5 5 4 4 3 3 1 0 0 0 0 0 0 0 0 0 0 1 1 2 3
4 4 4 5 6 8 7 7 8 10 10 9 7 6 6 6 5 4 4 4 2 2 2 3 3 3 3 3 2 1 0 0 0 0 0 0 0 0 0 0 1 2 3
3 3 3 4 6 6 5 4 5 6 7 6 4 3 3 3 4 3 3 3 2 1 1 1 2 2 2 2 2 1 0 0 0 0 0 0 0 0 0 0 0 1 2
3 3 3 3 4 5 4 2 3 4 5 4 3 1 1 1 2 3 3 3 3 3 2 2 2 2 1 1 1 0 0 0 0 0 0 0 0 0 0 0 0 0 1
1 2 3 3 3 4 3 1 1 2 3 3 3 2 1 0 1 1 2 3 3 3 3 3 3 3 1 0 0 0 0 0 0 0 0 0 0 0 0 0 0 0 0
0 1 2 3 3 3 2 1 0 1 1 1 2 3 2 1 1 0 1 1 2 3 3 3 3 3 2 1 0 0 0 0 0 0 0 0 0 0 0 0 0 0 0
0 0 1 2 3 3 2 1 0 0 1 1 1 2 3 3 2 1 0 0 1 1 2 3 3 3 3 2 1 0 0 0 0 0 0 0 0 0 0 0 0 0 0
0 0 0 1 2 3 2 1 0 0 0 0 0 1 2 3 3 1 0 0 0 0 1 2 3 3 3 3 2 1 0 0 0 0 0 0 0 0 0 0 0 0 0
0 0 0 0 1 2 2 1 0 0 0 0 0 0 1 2 3 2 1 0 0 0 0 1 1 2 3 3 2 1 0 0 0 0 0 0 0 0 0 0 0 0 0
0 0 0 0 0 1 2 1 0 0 1 0 0 0 0 1 3 2 1 0 0 0 0 0 0 1 1 2 2 1 0 0 0 0 0 0 0 0 0 0 0 0 0
0 0 0 0 0 1 1 1 0 0 0 0 0 0 0 1 2 3 1 0 0 0 0 0 0 0 0 1 2 1 0 0 0 0 0 0 0 0 0 0 0 0 0
0 0 0 0 0 0 1 0 0 0 0 0 0 0 0 1 2 3 2 1 0 0 0 0 0 0 0 0 1 1 0 0 0 0 0 0 0 0 0 0 0 0 0

GEFSSE_con_probscp_336.txt.gz
Probability
1 4 8 11 13 15 15 13 12 11 9 7 6 5 2 1 1 2 3 3 3 3 3 3 2 1 0 0 0 0 0 0 0 0 0 0 0 0 0 0 0 0 0
1 3 7 12 15 16 15 13 12 11 10 8 7 7 5 2 1 2 3 3 3 3 3 3 2 1 0 0 0 0 0 0 0 0 0 0 0 0 0 0 0 0 0
1 3 7 14 19 18 16 14 13 11 10 8 7 7 7 4 3 3 4 3 3 3 3 3 3 1 1 0 0 0 0 0 0 0 0 0 0 0 0 0 0 0 0
0 1 6 15 20 19 17 15 13 11 10 9 7 7 7 7 6 4 5 4 4 3 3 3 3 3 2 1 0 0 0 0 0 0 0 0 0 0 0 0 0 0 0
1 1 6 14 19 18 18 16 13 11 10 9 7 6 7 8 8 6 6 6 5 4 3 3 3 3 3 1 0 0 0 0 0 0 0 0 0 0 0 0 0 0 0
2 2 5 11 16 17 18 17 15 12 11 9 8 7 7 8 9 8 7 7 6 5 4 3 3 4 3 1 0 0 0 0 0 0 0 0 0 0 0 0 0 0 0
1 1 3 7 11 15 17 17 16 14 13 11 9 8 7 8 9 9 9 7 6 6 5 4 3 3 3 1 0 0 0 0 0 0 0 0 0 1 0 0 0 0 0
2 1 1 3 7 11 14 15 15 16 16 14 12 10 9 9 8 10 10 8 7 6 6 4 3 3 2 1 1 1 0 0 0 0 0 0 0 0 0 0 0 0 0
2 1 1 2 4 6 9 11 12 14 16 17 16 14 12 11 10 10 11 10 8 7 6 4 3 3 2 2 2 1 0 0 0 0 0 0 0 0 0 0 0 0 0
3 3 2 2 2 3 5 7 9 11 14 17 17 16 14 13 12 12 12 12 11 8 6 4 3 3 2 1 1 1 0 0 0 0 0 0 0 0 0 0 0 0 0
5 4 4 4 4 4 4 5 6 7 10 14 15 15 15 15 14 12 11 11 11 8 6 6 5 4 2 1 0 0 0 0 0 0 0 0 0 0 0 0 0 0 0
6 6 7 8 8 7 6 5 4 4 6 9 12 13 14 15 14 12 9 9 9 7 6 7 6 5 2 1 0 0 0 0 0 0 1 0 0 0 0 0 0 0 0
6 7 8 10 11 11 9 7 6 6 6 7 9 12 13 14 14 13 11 9 7 7 6 6 6 5 2 1 1 0 0 0 0 0 0 0 0 0 0 0 0 0 0
7 6 6 9 11 13 12 10 9 10 10 9 10 11 12 14 14 13 12 9 7 6 6 6 6 5 4 2 1 0 0 0 0 0 0 0 0 0 0 0 0 0 0
9 7 6 7 10 13 14 13 13 14 13 11 10 10 11 12 12 11 10 8 6 5 6 6 7 6 5 3 2 1 0 0 0 0 0 0 0 0 0 0 0 0 0
7 8 9 9 11 14 15 14 14 15 13 11 11 10 10 10 10 9 8 8 6 6 6 6 7 7 7 5 3 1 1 1 0 0 0 0 0 0 0 0 0 0 0
4 6 8 9 10 12 13 13 13 12 10 10 11 10 9 9 9 8 8 7 7 6 6 6 7 8 9 7 5 3 2 2 1 0 0 0 0 0 0 0 0 0 0
1 2 4 6 8 9 10 11 11 9 8 8 10 10 8 8 8 7 7 7 7 7 6 6 7 9 10 9 7 5 4 3 2 1 0 0 0 0 0 0 0 0 0
0 0 1 3 5 6 7 7 8 7 6 7 9 9 7 6 5 5 6 7 7 7 7 6 7 8 9 10 9 7 5 4 3 2 1 1 1 1 0 0 0 0 0
0 0 1 2 3 4 5 5 5 5 4 5 6 7 5 3 3 3 4 5 6 7 7 6 6 7 9 9 8 6 5 5 4 3 3 2 2 2 1 0 0 0 0
0 0 0 1 2 3 4 4 4 3 2 2 3 3 3 2 2 3 3 4 4 5 6 6 5 6 7 8 7 5 4 4 4 3 3 3 3 3 2 1 0 0 0
0 0 0 0 1 1 2 3 3 2 1 0 0 0 1 2 3 3 3 3 3 4 4 4 4 4 5 6 6 4 3 2 2 1 1 2 2 2 2 1 0 0 0
0 0 0 0 0 0 1 2 2 1 0 0 0 0 0 1 2 3 3 3 3 3 3 3 2 2 3 4 5 3 2 1 0 0 0 1 1 1 1 0 0 0 0
0 0 0 1 1 0 0 1 1 1 0 0 0 0 0 0 1 1 2 3 3 3 3 3 1 1 1 2 3 3 2 1 1 0 0 0 0 0 0 0 0 0 0
0 0 1 2 1 0 0 0 0 0 0 0 0 0 0 0 0 0 1 1 2 2 2 3 2 1 0 1 1 1 2 2 1 1 0 0 0 0 0 0 0 0 0
0 1 2 2 1 0 0 0 0 0 0 0 0 0 0 0 0 0 0 0 1 1 1 3 2 1 0 0 0 0 1 1 1 1 1 0 0 0 0 0 0 0 0

GEFSSE_con_probscp_342.txt.gz
Probability
2 2 4 8 11 11 9 7 5 4 4 3 3 1 0 0 1 2 3 3 3 3 3 3 2 1 0 0 0 0 0 0 0 0 0 0 0 0 0 0 0 0 0
3 4 5 9 11 12 11 8 7 7 6 5 3 2 0 0 0 1 2 3 4 4 3 3 2 1 0 0 0 0 0 0 0 0 0 0 0 0 0 0 0 0 0
5 5 7 9 11 12 12 10 8 9 8 6 3 1 0 0 0 0 1 2 4 5 4 3 3 1 0 0 0 0 0 0 0 0 0 0 0 0 0 0 0 0 0
6 6 8 11 11 11 11 10 9 9 9 8 4 1 0 0 0 0 0 1 4 6 5 4 3 2 1 0 0 0 0 0 0 0 0 0 0 0 0 0 0 0 0
7 8 11 13 13 11 11 10 9 8 9 8 5 2 0 0 0 0 0 1 3 5 6 5 4 4 2 1 0 0 0 0 0 0 0 0 0 0 0 0 0 0 0
8 10 13 15 14 13 11 9 8 8 8 8 7 5 2 1 2 2 1 0 2 5 6 6 6 5 4 2 0 0 0 0 0 0 0 0 0 0 0 0 0 0 0
8 9 12 14 14 13 11 9 8 7 7 8 10 9 6 4 4 4 3 1 2 4 6 6 6 5 4 2 0 0 0 0 0 0 0 0 0 0 0 0 0 0 0
8 9 10 11 12 12 10 8 7 7 6 7 10 11 10 8 7 7 5 3 3 5 6 5 4 4 4 2 1 1 0 0 0 0 0 0 0 0 0 0 0 0 0
8 9 9 9 10 11 9 7 7 6 5 5 8 11 12 11 11 9 7 4 4 6 6 5 3 3 3 3 2 1 0 0 0 0 0 0 0 0 0 0 0 0 0
9 8 8 9 10 11 10 8 7 6 5 5 5 8 10 12 11 10 8 5 5 7 7 5 4 4 4 3 3 1 0 0 0 0 0 0 0 0 0 0 0 0 0
11 9 8 9 11 12 11 8 7 6 6 5 4 5 8 10 10 10 9 7 6 8 8 7 5 5 4 4 2 1 0 0 0 0 0 0 0 0 0 0 0 0 0
10 9 7 8 11 12 12 9 7 7 6 6 5 5 6 7 8 9 9 8 7 8 8 7 6 5 4 3 2 1 0 0 0 0 0 0 0 0 0 0 0 0 0
9 8 7 7 9 11 12 10 8 6 6 6 5 3 3 5 6 7 8 7 5 5 6 5 4 4 2 1 1 0 0 0 0 0 0 0 0 0 0 0 0 0 0
9 9 7 7 9 10 10 10 7 5 4 4 3 2 2 2 3 5 5 6 6 5 4 4 3 3 1 0 0 0 0 0 0 0 0 0 0 0 0 0 0 0 0
10 10 8 8 9 10 10 10 8 6 4 4 4 3 2 1 2 3 4 6 8 7 5 3 3 2 1 0 0 0 0 0 0 0 0 0 0 0 0 0 0 0 0
10 9 8 9 10 11 12 12 11 9 7 6 6 5 4 2 2 3 4 6 7 7 5 4 2 1 0 0 0 0 0 0 0 0 0 0 0 0 0 0 0 0 0
7 7 7 8 10 12 13 13 12 12 10 7 6 5 4 3 3 4 5 6 6 6 4 3 2 2 1 1 0 0 0 0 0 0 0 0 0 0 0 0 0 0 0
5 5 5 6 8 11 12 12 12 13 12 8 5 4 4 3 3 3 5 5 4 3 2 1 1 2 2 2 1 0 1 1 1 0 0 0 0 0 0 0 0 0 0
4 4 4 4 5 8 10 11 12 12 11 7 3 3 3 2 2 2 3 4 3 3 1 0 0 1 2 2 1 1 2 2 2 2 2 1 0 0 0 0 0 0 0
3 3 3 3 4 5 7 8 9 9 6 3 1 1 2 1 2 3 4 4 3 3 1 0 0 1 1 1 1 1 2 3 3 3 3 2 1 1 0 0 0 0 0
1 2 2 2 2 2 3 4 4 4 2 1 0 0 0 0 1 3 4 5 4 3 2 1 0 1 1 1 1 2 2 3 3 3 3 3 3 2 1 1 0 0 0
0 1 1 1 1 1 0 1 1 1 1 0 0 0 0 0 0 2 3 5 5 4 3 2 1 1 0 0 1 2 3 3 2 2 2 3 3 3 3 2 1 0 0
0 0 0 0 0 0 0 0 0 0 0 0 0 0 0 0 0 0 1 4 5 5 4 3 2 1 0 0 0 2 3 3 3 2 2 3 3 2 2 2 2 1 0
0 0 0 0 0 0 0 0 0 0 0 0 0 0 0 0 0 0 1 3 4 3 2 1 1 1 0 0 0 1 2 2 3 3 3 3 2 1 1 1 1 1 1
0 0 1 1 1 1 1 0 0 0 0 0 0 0 0 0 0 1 2 3 3 1 1 0 0 0 0 0 0 0 1 1 1 2 2 2 2 1 0 0 0 0 0
0 1 2 3 3 2 2 1 0 0 0 0 0 0 0 0 0 1 2 3 2 1 0 0 0 0 0 0 0 0 0 0 0 1 1 2 2 1 0 0 0 0 0

GEFSSE_con_probscp_348.txt.gz
Probability
0 1 3 5 6 6 6 6 7 11 15 16 13 8 6 5 4 3 3 2 1 1 1 1 0 0 0 0 0 0 0 0 0 0 0 0 0 0 0 0 0 0 0
1 0 2 5 6 6 6 6 6 10 13 14 12 8 5 4 3 3 2 1 1 1 2 2 1 0 0 0 0 0 0 0 0 0 0 0 0 0 0 0 0 0 0
2 1 1 4 6 7 6 6 6 8 10 12 11 8 5 4 3 1 1 0 1 2 3 3 2 1 0 0 0 0 0 0 0 0 0 0 0 0 0 0 0 0 0
2 1 1 3 6 7 7 6 6 6 8 9 9 8 6 4 3 1 0 0 1 2 3 3 3 2 1 0 0 0 0 0 0 0 0 0 0 0 0 0 0 0 0
3 3 3 4 6 8 8 8 7 6 7 8 9 8 6 3 2 1 0 0 0 1 2 2 2 2 1 0 0 0 0 0 0 0 0 0 0 0 0 0 0 0 0
3 3 3 4 5 7 9 10 9 6 5 6 8 8 5 2 1 1 0 0 0 0 1 1 1 1 1 0 0 0 0 0 0 0 0 0 0 0 0 0 0 0 0
4 4 4 5 5 6 8 9 8 6 4 5 6 7 5 4 3 2 1 1 0 0 0 0 1 3 2 1 0 0 0 0 0 0 0 0 0 0 0 0 0 0 0
4 5 6 6 5 6 6 7 7 6 5 5 5 6 6 7 7 5 3 2 1 1 1 1 2 4 4 2 1 0 0 0 0 0 0 0 0 0 0 0 0 0 0
6 7 8 7 7 6 6 5 5 6 6 6 6 6 6 8 8 6 5 4 4 3 3 2 2 3 4 3 2 1 0 0 0 0 0 0 0 0 0 0 0 0 0
7 8 9 8 8 7 6 5 4 4 5 6 6 5 5 6 8 7 5 4 6 6 4 3 3 4 3 3 3 2 1 0 0 0 0 0 0 0 0 0 0 0 0
8 8 9 9 8 8 8 6 6 5 5 6 6 4 4 4 6 6 5 4 5 7 6 5 5 5 4 3 3 2 1 0 0 0 0 0 0 0 0 0 0 0 0
8 8 8 9 8 8 8 8 7 7 6 6 6 5 4 3 4 5 4 4 5 7 7 6 5 4 3 3 3 2 1 0 0 0 0 0 0 0 0 0 0 0 0
7 7 7 8 8 8 8 8 7 6 5 5 6 5 4 3 3 3 4 4 5 7 7 5 4 2 1 1 3 3 1 0 0 0 0 0 0 0 0 0 0 0 0
6 6 6 7 7 7 7 7 6 5 4 4 4 4 3 3 3 3 4 5 6 6 5 3 2 0 0 1 2 3 2 1 0 0 0 0 0 0 0 0 0 0 0
7 7 7 7 7 7 6 6 6 4 3 2 2 3 3 3 3 3 3 3 4 4 3 3 1 0 0 0 1 2 2 1 0 0 0 0 0 1 1 1 0 0 0
8 8 7 7 7 7 6 6 5 3 1 1 1 1 2 2 2 1 1 1 1 1 2 2 1 0 0 0 0 1 1 0 0 0 0 0 0 1 2 2 1 0 0
6 7 7 8 8 7 7 6 4 3 1 0 0 0 1 1 1 0 0 0 0 0 1 1 1 0 0 0 0 0 1 1 0 0 0 0 0 1 2 3 2 1 1
4 4 5 7 8 8 7 6 5 3 1 0 0 0 0 0 0 0 0 0 0 0 1 1 1 0 0 0 0 0 1 1 0 0 0 0 0 0 1 2 3 3 2
3 3 4 5 7 7 8 8 6 4 2 1 0 0 0 0 0 0 0 0 0 1 2 2 2 1 0 0 0 0 0 0 0 0 0 0 0 0 0 1 3 3 3
3 3 3 4 5 6 7 8 8 6 3 2 1 0 0 0 0 0 0 0 0 1 2 3 3 2 1 0 0 0 0 0 0 0 0 0 0 0 0 1 2 2 2
3 3 3 3 4 4 5 7 7 6 4 3 2 0 0 0 0 0 0 0 0 1 1 1 2 2 1 0 0 0 0 0 0 0 0 0 0 0 0 0 1 1 1
3 3 3 3 3 3 4 4 4 5 4 3 1 0 0 0 0 0 0 0 1 1 1 0 1 2 2 1 0 0 0 0 0 0 0 0 0 0 0 0 0 0 0
3 3 4 4 3 3 3 3 2 2 3 2 1 0 0 0 0 0 0 0 1 2 2 1 0 1 1 1 1 0 0 0 0 0 0 0 0 0 0 0 0 0 0
3 4 4 5 4 4 3 3 2 1 1 1 0 0 0 0 0 0 0 0 0 1 1 1 0 0 1 1 1 0 0 0 0 0 0 0 0 0 0 0 0 0 0
3 3 3 4 5 5 4 2 1 0 0 0 0 0 0 0 0 0 0 0 0 0 0 0 0 0 0 0 0 0 0 0 0 0 0 0 0 0 0 0 0 0 0
3 2 2 3 4 5 4 2 0 0 0 0 0 0 0 0 0 0 0 0 0 0 0 0 0 0 0 0 0 0 0 0 0 0 0 0 0 0 0 0 0 0 0